Location: Carrières
(48.9495°N, 2.0407°E)
Time: 18:22:31
(UTC+00:00)

Cosmos 1892 - Pass Details

Date: 28 January 2023
Orbit: 486 x 506 km, 82.5° (Epoch: 25 March)

Event Time Altitude Azimuth Distance (km) Brightness Sun altitude
Rises 18:27:17 0° 172° (S) 2,560 6.2 -17.2°
Reaches altitude 10° 18:29:26 10° 165° (SSE) 1,688 5.2 -17.5°
Enters shadow 18:32:18 38° 123° (ESE) 769 3.2 -18.0°
